Regional Weather Roundup
Issued by NWS Sterling, VA

Home | Current Version | Previous Version | Text Only | Print | Product List | Glossary Off
Versions: 1 2 3 4 5 6 7 8 9 10 11 12 13 14 15 16 17 18 19 20 21 22 23 24 25 26 27 28 29 30 31 32 33 34 35 36 37 38 39 40 41 42 43 44 45 46 47 48 49 50

000
ASUS41 KLWX 161310
RWRLWX

REGIONAL WEATHER ROUNDUP
NATIONAL WEATHER SERVICE BALTIMORE MD/WASHINGTON DC
900 AM EDT TUE SEP 16 2014

Note: "FAIR" indicates few or no clouds below 12,000 feet
with no significant weather and/or obstructions to visibility.
 TC=TEMPERATURE CELSIUS

 * =Non NWS site. Station does not report precipitation (e.g. rain,
    snow, etc.), thunder, or fog.

DCZ001-MDZ009-015-VAZ040>042-051-053>054-161400-
WASHINGTON METRO

CITY           SKY/WX    TMP DP  RH WIND       PRES   REMARKS
WASHINGTON NAT MOSUNNY   71  56  58 W6        30.03S
DULLES         MOSUNNY   67  57  70 NW3       30.04R
ANDREWS AFB    SUNNY     69  59  70 W9        30.02S
QUANTICO       MOSUNNY   67  62  84 W6        30.04R
COLLEGE PARK*  MOSUNNY   70  59  68 W7        30.02S
LEESBURG*      MOSUNNY   66  59  77 NW12      30.05S
MANASSAS*      PTSUNNY   66  61  82 CALM      30.04R
GAITHERSBURG*  SUNNY     64  59  82 W6        30.07S

$$

MDZ006>007-011-014-161400-
BALTIMORE METRO

CITY           SKY/WX    TMP DP  RH WIND       PRES   REMARKS
BWI AIRPORT    MOSUNNY   67  59  75 W6        30.01S
MD SCIENCE CTR   N/A     67  56  67 MISG      30.02R
MARTIN STATE   MOSUNNY   68  63  83 W10       30.02S
ANNAPOLIS      MOSUNNY   69  59  70 NW8       30.01R
FORT MEADE*    SUNNY     63  61  94 CALM      30.04S

$$

MDZ012-015-019>023-161400-
MARYLAND EASTERN SHORE

CITY           SKY/WX    TMP DP  RH WIND       PRES   REMARKS
OCEAN CITY     MOSUNNY   70  65  84 W7        30.00S
SALISBURY        N/A    N/A N/A N/A MISG      30.01R
BAY BRIDGE AP*   N/A     68  59  73 W7        30.01R
CAMBRIDGE*     MOSUNNY   72  61  68 W6        30.00S
EASTON*        SUNNY     70  70 100 CALM      30.04S

$$

MDZ017>025-161400-
SOUTHERN MARYLAND

CITY           SKY/WX    TMP DP  RH WIND       PRES   REMARKS
PATUXENT RIVER MOSUNNY   71  61  70 NW10      30.02R
ST INIGOES     SUNNY     73  60  63 W7        30.02R
LEONARDTOWN*   SUNNY     68  61  77 W6        30.04S

$$

MDZ003>005-161400-
NORTH CENTRAL MARYLAND

CITY           SKY/WX    TMP DP  RH WIND       PRES   REMARKS
FREDERICK*     SUNNY     66  63  88 CALM      30.07
HAGERSTOWN APT SUNNY     64  53  67 W7        30.05S
WESTMINSTER*   SUNNY     63  55  77 NW7       30.04R

$$

MDZ501>502-161400-
WESTERN MARYLAND

CITY           SKY/WX    TMP DP  RH WIND       PRES   REMARKS
OAKLAND*       CLOUDY    50 N/A N/A NW5       30.11S FOG
CUMBERLAND*    CLOUDY    61  55  82 CALM      30.12R

$$

VAZ025>031-161400-
SHENANDOAH VALLEY

CITY           SKY/WX    TMP DP  RH WIND       PRES   REMARKS
WINCHESTER*    CLOUDY    68  54  60 NW14      30.06R
STAUNTON*      MOSUNNY   64  59  82 CALM      30.09R

$$

WVZ021-048>050-054>055-161400-
EASTERN WEST VIRGINIA PANHANDLE

CITY           SKY/WX    TMP DP  RH WIND       PRES   REMARKS
MARTINSBURG    PTSUNNY   64  53  67 NW14      30.06R
PETERSBURG*    CLOUDY    63  57  81 N3        30.11R

$$

VAZ036>039-050-161400-
CENTRAL FOOTHILLS

CITY           SKY/WX    TMP DP  RH WIND       PRES   REMARKS
CHARLOTTESVILL MOSUNNY   65  63  93 CALM      30.05R
ORANGE*        MOSUNNY   66  63  88 CALM      30.04F

$$

VAZ055>057-161400-
NORTH AND CENTRAL PIEDMONT

CITY           SKY/WX    TMP DP  RH WIND       PRES   REMARKS
FREDERICKSBRG* SUNNY     68  66  93 CALM      30.03S
STAFFORD*      SUNNY     67  67 100 CALM      30.07S

$$

NCZ024-NYZ072-PAZ021-071-VAZ022-071-161400-
OTHER REGIONAL OBSERVATIONS

CITY           SKY/WX    TMP DP  RH WIND       PRES   REMARKS
NEW YORK CITY  RAIN      58  55  90 CALM      30.05S FOG
PHILADELPHIA   PTSUNNY   64  60  87 W8        30.00S
PITTSBURGH     MOSUNNY   54  52  93 NW8       30.11S
ROANOKE        CLOUDY    67  57  70 W8        30.10R
RICHMOND       MOSUNNY   72  65  78 NW5       30.04R
RALEIGH        PTSUNNY   72  67  84 NW5       30.06F

$$

ANZ530>537-161400-
MARINE OBSERVATIONS

STATION/POSITION TIME  TEMP    WIND        PRES
                       AIR SEA DIR/SP/G
                 (UTC) (F)     (DEG/KT/KT) (MB)
THOMAS PT LIGHT  1300   67 74  290/  9/ 10 1017.1R
BALT KEY BRIDGE  1300   65     280/  9/ 10 1016.2
COVE POINT       1300   69     310/  8/ 11 1016.3
LEWISETTA        1300   69     280/  7/  9 1016.3
SOLOMONS ISLAND  1200      76                N/A
PINEY POINT      1300          310/ 11/ 12   N/A

$$



USA.gov is the U.S. government's official web portal to all federal, state and local government web resources and services.